CAPE
0 0 0 0 0 0 0 0 0 0 0 0 0 0 0 0 0 0 0 0 0 0
0 0 0 0 0 0 0 0 0 0 0 0 0 0 0 0 0 0 0 0 0 0
0 0 0 0 0 0 0 0 0 0 0 0 0 0 0 0 0 0 0 0 0 0
0 0 0 0 0 0 0 0 0 0 0 0 0 0 0 0 0 0 0 0 0 0
0 0 0 0 0 0 0 0 0 0 0 0 0 0 0 0 0 0 0 0 0 0
0 0 0 0 0 0 0 0 0 0 0 0 0 0 0 0 0 0 0 0 0 0
0 0 0 0 0 0 0 0 0 0 0 0 0 0 0 0 0 0 0 0 0 0
0 0 0 0 0 0 0 0 0 0 0 0 0 0 0 0 1 2 2 2 2 2
0 0 0 0 0 0 0 0 0 0 0 0 0 0 2 8 2 7 10 1 1 2
0 0 0 0 0 0 0 0 0 0 0 0 0 0 3 12 3 1 1 2 2 1
0 0 0 0 0 0 0 0 0 0 0 0 1 0 4 6 0 5 4 1 0 0
0 0 0 0 0 0 0 0 0 0 0 0 0 0 3 5 1 1 0 0 0 0
0 0 0 0 0 0 0 0 0 0 0 0 0 0 1 7 1 3 4 1 0 1
0 0 0 0 0 0 0 0 0 0 0 0 0 0 1 5 2 0 1 7 12 1
CIN
0 0 0 0 0 0 0 0 0 0 0 0 0 0 0 0 0 0 0 0 0 0
0 0 0 0 0 0 0 0 0 0 0 0 0 0 0 0 0 0 0 0 0 0
0 0 0 0 0 0 0 0 0 0 0 0 0 0 0 0 0 0 0 0 0 0
0 0 0 0 0 0 0 0 0 0 0 0 0 0 0 0 0 0 0 0 0 0
0 0 0 0 0 0 0 0 0 0 0 0 0 0 0 0 0 0 0 0 0 0
0 0 0 0 0 0 0 0 0 0 0 0 0 0 0 0 0 0 0 0 0 0
0 0 0 0 0 0 0 0 0 0 0 0 0 0 0 0 0 0 0 0 0 0
0 0 0 0 0 0 0 0 0 0 0 0 0 0 0 0 -1 0 0 0 0 0
0 0 0 0 0 0 0 0 0 0 0 0 0 0 -1 -2 0 0 0 -1 0 0
0 0 0 0 0 0 0 0 0 0 0 0 0 0 -1 -3 -2 0 -1 0 0 0
0 0 0 0 0 0 0 0 0 0 0 0 0 -1 -2 -2 -2 0 0 0 0 0
0 0 0 0 0 0 0 0 0 0 0 0 0 0 -1 -2 0 0 0 0 -1 0
0 0 0 0 0 0 0 0 0 0 0 0 0 0 -1 -2 -1 -2 0 -1 0 -1
0 0 0 0 0 0 0 0 0 0 0 0 0 0 -1 -3 -4 -1 -1 0 -1 0
Wind_Speed
39 41 42 42 44 45 46 45 45 46 46 47 48 48 48 49 49 49 50 52 51 51
40 42 43 43 43 44 44 45 46 46 48 48 48 48 49 49 50 50 49 50 52 52
41 41 41 42 43 44 44 44 45 46 47 48 48 48 49 50 50 51 52 52 52 52
39 39 40 41 41 42 43 43 44 45 46 47 48 48 48 49 50 51 51 51 53 54
38 38 39 40 40 41 42 42 43 44 45 46 47 47 47 49 48 50 51 52 52 54
38 38 38 39 40 40 41 43 43 44 45 46 46 47 47 47 48 48 49 50 51 52
37 37 38 38 39 40 41 43 44 44 45 46 47 47 47 46 47 47 47 48 49 50
37 37 36 37 38 40 41 42 43 45 45 45 46 45 45 45 47 47 48 48 48 49
36 36 36 38 40 41 42 42 43 43 44 46 45 46 48 48 48 47 48 50 48 48
36 37 38 39 41 41 42 42 43 44 44 46 45 46 48 48 48 48 47 48 49 49
36 38 39 39 40 41 42 42 44 45 45 46 45 47 48 49 47 46 46 46 47 48
37 39 40 41 42 41 42 42 44 45 46 46 46 47 48 48 46 46 47 46 46 47
37 39 41 41 42 41 39 42 44 46 45 46 46 46 46 46 45 46 46 46 46 47
37 39 40 40 39 39 41 42 44 46 45 45 44 45 45 46 46 46 47 47 46 46
Wind_Direction
320 317 316 315 314 313 311 312 312 312 311 309 307 304 300 297 294 291 287 284 281 279
318 317 315 315 314 312 311 310 310 310 308 308 306 305 302 297 294 292 289 285 282 279
316 316 315 314 313 313 312 311 310 309 309 308 306 304 301 297 294 291 288 285 282 279
317 317 316 315 314 314 313 312 311 310 309 308 307 306 302 298 295 292 289 286 283 279
316 316 316 316 316 316 314 313 311 311 309 309 308 307 304 300 297 293 290 287 284 280
314 315 316 316 317 317 316 314 312 311 309 309 308 307 305 301 298 295 292 289 286 282
313 314 315 317 317 317 316 314 312 311 309 308 308 307 305 303 299 296 294 291 288 284
312 314 316 317 317 318 317 316 314 311 310 309 308 308 306 303 300 298 295 293 290 286
312 313 315 315 316 317 318 317 315 313 311 308 308 307 303 302 301 299 296 293 292 289
312 313 314 315 316 317 317 317 314 312 310 307 307 305 302 300 302 300 297 295 292 290
312 312 314 316 317 317 318 316 313 311 310 307 305 302 300 299 302 301 298 296 294 290
312 312 314 315 316 317 317 315 312 309 307 305 301 298 298 300 302 298 295 297 295 291
312 313 314 315 315 316 317 314 311 306 306 301 297 295 297 300 301 298 299 298 297 292
312 313 314 314 315 315 314 312 309 304 303 299 298 295 296 297 300 301 297 297 298 297